This is the latest recevied weather packets stored in our database for station/object KMASWX. If no packets are shown the sender has not sent any weather packets the latest 1 day(s).
| Time | Temp. | Humidity | Pressure | Rain* | Wind** | Luminosity | Snow |
|---|---|---|---|---|---|---|---|
| 1778005760 | 22.22° C | 26% | - | 0 mm | 0 m/s | - | - |
| 1778005149 | 21.11° C | 29% | - | 0 mm | 0 m/s | - | - |
| 1778004841 | 21.11° C | 31% | - | 0 mm | 2.68 m/s, 206° | - | - |
| 1778004537 | 20.56° C | 31% | - | 0 mm | 1.79 m/s, 198° | - | - |
| 1778004234 | 20.56° C | 34% | - | 0 mm | 0.89 m/s, 236° | - | - |
| 1778003315 | 20° C | 33% | - | 0 mm | 0 m/s | - | - |
| 1778003011 | 20° C | 34% | - | 0 mm | 0.45 m/s, 161° | - | - |
| 1778002096 | 19.44° C | 35% | - | 0 mm | 0.89 m/s, 47° | - | - |
| 1778001792 | 19.44° C | 33% | - | 0 mm | 1.34 m/s, 136° | - | - |
| 1778001489 | 19.44° C | 35% | - | 0 mm | 0.45 m/s, 196° | - | - |
| 1778001182 | 18.89° C | 37% | - | 0 mm | 0 m/s | - | - |
| 1778000879 | 18.33° C | 37% | - | 0 mm | 0.89 m/s, 126° | - | - |
| 1778000574 | 18.33° C | 36% | - | 0 mm | 1.34 m/s, 158° | - | - |
| 1778000268 | 18.89° C | 38% | - | 0 mm | 0.89 m/s, 219° | - | - |
| 1777999965 | 18.33° C | 37% | - | 0 mm | 0.89 m/s, 102° | - | - |
| 1777999661 | 18.33° C | 40% | - | 0 mm | 0.45 m/s, 22° | - | - |
| 1777999354 | 17.22° C | - | - | - | 0 m/s | - | - |
| 1777999051 | 17.22° C | 41% | - | 0 mm | 0 m/s | - | - |
| 1777998747 | 16.67° C | 41% | - | 0 mm | 0.89 m/s, 199° | - | - |
| 1777998443 | 16.11° C | 44% | - | 0 mm | 0.45 m/s, 182° | - | - |
| 1777997833 | 15.56° C | 45% | - | 0 mm | 2.24 m/s, 226° | - | - |
| 1777997226 | 15.56° C | 45% | - | 0 mm | 2.24 m/s, 241° | - | - |
| 1777996314 | 15° C | 48% | - | 0 mm | 2.24 m/s, 257° | - | - |
| 1777996010 | 14.44° C | 48% | - | 0 mm | 0.89 m/s, 246° | - | - |
| 1777995707 | 14.44° C | 51% | - | 0 mm | 2.24 m/s, 230° | - | - |
* Rain latest 24 hours (hover to see other rain measurements)
** Current wind speed in m/s (hover to see current wind gust speed)